TimeEDT,TemperatureF,Dew PointF,Humidity,Sea Level PressureIn,VisibilityMPH,Wind Direction,Wind SpeedMPH,Gust SpeedMPH,PrecipitationIn,Events,Conditions,WindDirDegrees,DateUTC
12:56 AM,28.0,27.1,96,30.18,10.0,Calm,Calm,-,N/A,,Mostly Cloudy,0,2013-03-30 04:56:00
1:56 AM,27.1,26.1,96,30.18,10.0,Calm,Calm,-,N/A,,Scattered Clouds,0,2013-03-30 05:56:00
2:56 AM,26.1,25.2,96,30.18,10.0,Calm,Calm,-,N/A,,Scattered Clouds,0,2013-03-30 06:56:00
3:56 AM,25.2,24.1,96,30.18,10.0,Calm,Calm,-,N/A,,Clear,0,2013-03-30 07:56:00
4:56 AM,24.1,23.0,96,30.18,10.0,Calm,Calm,-,N/A,,Clear,0,2013-03-30 08:56:00
5:56 AM,24.1,23.0,96,30.19,10.0,Calm,Calm,-,N/A,,Clear,0,2013-03-30 09:56:00
6:26 AM,24.8,23.0,93,30.15,10.0,Calm,Calm,-,N/A,,Clear,0,2013-03-30 10:26:00
6:56 AM,24.1,23.0,96,30.20,10.0,East,3.5,-,N/A,,Clear,80,2013-03-30 10:56:00
7:56 AM,27.1,26.1,96,30.22,10.0,Calm,Calm,-,N/A,,Clear,0,2013-03-30 11:56:00
8:56 AM,36.0,27.1,70,30.22,10.0,Calm,Calm,-,N/A,,Clear,0,2013-03-30 12:56:00
9:56 AM,37.9,24.1,57,30.22,10.0,NW,9.2,-,N/A,,Clear,310,2013-03-30 13:56:00
10:56 AM,41.0,25.2,53,30.21,10.0,WNW,8.1,-,N/A,,Clear,290,2013-03-30 14:56:00
11:56 AM,45.0,24.1,44,30.20,10.0,NW,8.1,-,N/A,,Clear,320,2013-03-30 15:56:00
12:56 PM,46.9,18.1,32,30.19,10.0,WNW,6.9,-,N/A,,Partly Cloudy,290,2013-03-30 16:56:00
1:56 PM,48.9,20.1,32,30.16,10.0,NW,6.9,-,N/A,,Scattered Clouds,310,2013-03-30 17:56:00
2:56 PM,50.0,21.0,32,30.14,10.0,WNW,12.7,16.1,N/A,,Scattered Clouds,300,2013-03-30 18:56:00
3:56 PM,50.0,20.1,31,30.14,10.0,WNW,10.4,-,N/A,,Scattered Clouds,290,2013-03-30 19:56:00
4:56 PM,48.9,18.1,30,30.12,10.0,NNW,9.2,-,N/A,,Scattered Clouds,340,2013-03-30 20:56:00
5:56 PM,48.9,19.0,31,30.12,10.0,NNW,10.4,-,N/A,,Clear,330,2013-03-30 21:56:00
6:56 PM,45.9,20.1,36,30.13,10.0,NW,5.8,-,N/A,,Clear,320,2013-03-30 22:56:00
7:56 PM,43.0,20.1,40,30.13,10.0,North,3.5,-,N/A,,Clear,10,2013-03-30 23:56:00
8:56 PM,36.0,24.1,62,30.12,10.0,East,3.5,-,N/A,,Clear,90,2013-03-31 00:56:00
9:56 PM,32.9,25.2,73,30.13,10.0,East,3.5,-,N/A,,Clear,90,2013-03-31 01:56:00
10:56 PM,32.0,22.1,67,30.12,10.0,East,4.6,-,N/A,,Clear,90,2013-03-31 02:56:00
11:56 PM,34.0,22.1,62,30.10,10.0,East,6.9,-,N/A,,Clear,80,2013-03-31 03:56:00